Location: Aressy
(43.2833°N, 0.3167°W)
Time: 21:00:10
(UTC+00:00)

Cosmos 990 Rocket - Pass Details

Date: 28 January 2021
Orbit: 748 x 768 km, 74.0° (Epoch: 02 March)

Event Time Altitude Azimuth Distance (km) Brightness Sun altitude
Rises 17:31:11 0° 193° (SSW) 3,207 7.7 -4.7°
Reaches altitude 10° 17:33:33 10° 192° (SSW) 2,283 6.9 -5.1°
Maximum altitude 17:38:42 75° 108° (ESE) 787 4.0 -6.0°
Drops below altitude 10° 17:43:52 10° 24° (NNE) 2,286 6.1 -6.9°
Sets 17:46:15 0° 22° (NNE) 3,212 6.8 -7.3°
